sat.trackr.live / text

‹ back to catalog

HAWK-3C

NORAD 48948 · 2021-059BX

PAYLOAD ACTIVE UNKNOWN

§ Identity

Operator
Country
US
Launch date
2021-06-30
Launch site
AFETR
Launch vehicle
Mass (kg)
RCS (m²)

Purposes: tech_demo

External: N2YO · Heavens-Above · Gunter

§ Orbital elements

Epoch: 2026-09-18T02:36:09.676512Z

Period
91.26 min
Inclination
97.6649°
Eccentricity
0.0003005
Mean motion
15.77825614 rev/d
Perigee alt
334.6 km
Apogee alt
338.6 km
Semi-major
6,714.7 km
B*
2.8185e-4
RAAN
112.9853°
Arg perigee
357.5839°
Mean anomaly
2.5411°
Rev number
29,246

§ Raw data

HAWK-3C1 48948U 21059BX  26261.10844533  .00047316  00000+0  28185-3 0  99922 48948  97.6649 112.9853 0003005 357.5839   2.5411 15.77825614292465

JSON: /api/v1/satellites/48948 · /tle

For live sub-satellite position, see the globe view (requires WebGL).

§ Visibility from observer

Set your observer location to see the next 7 days of passes ≥ 10°. The values pass through the URL so the page stays shareable.

No JS? Fill the form by hand. The geolocation button needs JavaScript.